EW4338 Weather Reports


time (UTC)temp
C
wind
direction
speed
KPH
gust
KPH
rain 1hr
cm
rain 24hr
cm
rain mn
cm
humidity
%
barometer
mb
20240222094559 0 17 0.0 9.7 0.00 0.00 0.00 88 1021.9
20240222094058 0 27 1.6 9.7 0.00 0.00 0.00 88 1021.9
20240222093557 0 36 0.0 17.7 0.00 0.00 0.00 88 1021.8
20240222093057 0 7 8.0 17.7 0.00 0.00 0.00 89 1021.6
20240222092558 0 323 1.6 12.9 0.00 0.00 0.00 88 1021.7
20240222092057 0 347 3.2 12.9 0.00 0.00 0.00 89 1021.6
20240222091554 -1 17 6.4 12.9 0.00 0.00 0.00 88 1021.4
20240222091054 -1 356 4.8 12.9 0.00 0.00 0.00 89 1021.5
20240222090558 -1 356 4.8 9.7 0.00 0.00 0.00 88 1021.5
20240222090053 -1 11 3.2 9.7 0.00 0.00 0.00 88 1021.2
20240222085552 -1 337 4.8 9.7 0.00 0.00 0.00 88 1021.2
20240222085056 -1 356 4.8 11.3 0.00 0.00 0.00 89 1021.1
20240222084551 -1 20 3.2 11.3 0.00 0.00 0.00 88 1021.2
20240222084051 -1 21 3.2 8.0 0.00 0.00 0.00 88 1021.2
20240222083550 -1 11 3.2 12.9 0.00 0.00 0.00 88 1021.1
20240222083048 -1 4 6.4 14.5 0.00 0.00 0.00 88 1021.0
20240222082548 -1 29 4.8 14.5 0.00 0.00 0.00 88 1021.0
20240222082048 -1 23 6.4 14.5 0.00 0.00 0.00 88 1020.9
20240222081546 -1 17 9.7 14.5 0.00 0.00 0.00 88 1020.8
20240222081046 -1 21 6.4 17.7 0.00 0.00 0.00 87 1020.6
20240222080545 -1 1 9.7 14.5 0.00 0.00 0.00 87 1020.6
20240222080043 -1 351 6.4 9.7 0.00 0.00 0.00 87 1020.6
20240222075543 -1 21 1.6 9.7 0.00 0.00 0.00 87 1020.6
20240222075045 -1 5 1.6 11.3 0.00 0.00 0.00 87 1020.6
20240222074542 -1 329 4.8 9.7 0.00 0.00 0.00 87 1020.8
20240222074042 -1 356 4.8 8.0 0.00 0.00 0.00 86 1020.7
20240222073542 -1 358 3.2 11.3 0.00 0.00 0.00 86 1020.7
20240222073040 -1 11 4.8 11.3 0.00 0.00 0.00 85 1020.8
20240222072541 -1 13 4.8 11.3 0.00 0.00 0.00 85 1020.8
20240222072038 -1 10 4.8 8.0 0.00 0.00 0.00 84 1020.7
20240222071542 -1 358 4.8 9.7 0.00 0.00 0.00 84 1020.5
20240222071035 -1 338 4.8 6.4 0.00 0.00 0.00 83 1020.7
20240222070536 -1 53 0.0 8.0 0.00 0.00 0.00 82 1020.5
20240222070032 0 53 1.6 8.0 0.00 0.00 0.00 82 1020.4
20240222065533 0 82 0.0 8.0 0.00 0.00 0.00 81 1020.4
20240222065034 0 97 0.0 8.0 0.00 0.00 0.00 81 1020.3
20240222064531 0 35 0.0 3.2 0.00 0.00 0.00 80 1020.5
20240222064031 0 32 0.0 4.8 0.00 0.00 0.00 80 1020.4
20240222063534 0 32 0.0 4.8 0.00 0.00 0.00 80 1020.3
20240222063030 0 31 0.0 8.0 0.00 0.00 0.00 79 1020.4
20240222062529 0 31 1.6 8.0 0.00 0.00 0.00 77 1020.3
20240222062028 0 46 1.6 6.4 0.00 0.00 0.00 76 1020.1
20240222061527 0 10 1.6 8.0 0.00 0.00 0.00 75 1020.2
20240222061026 0 10 6.4 8.0 0.00 0.00 0.00 75 1020.1
20240222060526 0 92 0.0 6.4 0.00 0.00 0.00 73 1020.3
20240222060026 0 93 1.6 6.4 0.00 0.00 0.00 72 1020.1
20240222055524 0 84 0.0 9.7 0.00 0.00 0.00 70 1020.3
20240222055023 0 82 6.4 12.9 0.00 0.00 0.00 70 1020.1
20240222054523 0 191 3.2 12.9 0.00 0.00 0.00 70 1020.3
20240222054022 0 97 1.6 6.4 0.00 0.00 0.00 70 1020.3
20240222053522 0 58 0.0 3.2 0.00 0.00 0.00 69 1020.2
20240222053021 0 58 0.0 11.3 0.00 0.00 0.00 68 1020.3
20240222052520 0 58 1.6 11.3 0.00 0.00 0.00 67 1020.1
20240222052019 1 65 3.2 9.7 0.00 0.00 0.00 66 1020.3
20240222051522 1 80 0.0 9.7 0.00 0.00 0.00 65 1020.2
20240222051016 1 73 3.2 11.3 0.00 0.00 0.00 64 1019.9
20240222050517 1 74 3.2 11.3 0.00 0.00 0.00 62 1019.9
20240222050031 2 69 4.8 12.9 0.00 0.00 0.00 60 1019.7
20240222045512 2 91 8.0 12.9 0.00 0.00 0.00 58 1019.6
20240222045012 2 80 3.2 11.3 0.00 0.00 0.00 58 1019.4
20240222044512 2 41 4.8 11.3 0.00 0.00 0.00 58 1019.4
20240222044013 2 42 0.0 4.8 0.00 0.00 0.00 57 1019.5
20240222043509 2 46 3.2 6.4 0.00 0.00 0.00 56 1019.4
20240222043010 2 76 1.6 4.8 0.00 0.00 0.00 56 1019.3
20240222042510 2 76 0.0 4.8 0.00 0.00 0.00 55 1019.2
20240222042009 3 76 1.6 4.8 0.00 0.00 0.00 54 1019.2
20240222041509 3 94 0.0 3.2 0.00 0.00 0.00 53 1019.2
20240222041010 3 94 0.0 6.4 0.00 0.00 0.00 53 1019.2
20240222040509 3 94 3.2 6.4 0.00 0.00 0.00 53 1019.0
20240222040009 3 175 0.0 3.2 0.00 0.00 0.00 54 1019.0
20240222035509 3 175 0.0 3.2 0.00 0.00 0.00 53 1018.9
20240222035009 3 175 0.0 6.4 0.00 0.00 0.00 54 1018.8
20240222034513 3 168 3.2 6.4 0.00 0.00 0.00 54 1018.7
20240222034010 3 134 3.2 6.4 0.00 0.00 0.00 53 1018.5
20240222033510 3 235 0.0 1.6 0.00 0.00 0.00 53 1018.5
20240222033007 3 235 0.0 8.0 0.00 0.00 0.00 54 1018.6
20240222032508 2 235 1.6 16.1 0.00 0.00 0.00 56 1018.5
20240222032008 2 279 4.8 16.1 0.00 0.00 0.00 58 1018.6
20240222031506 2 257 8.0 16.1 0.00 0.00 0.00 57 1018.4
20240222031005 2 248 1.6 8.0 0.00 0.00 0.00 56 1018.2
20240222030504 3 230 3.2 6.4 0.00 0.00 0.00 57 1018.3
20240222030005 3 162 0.0 3.2 0.00 0.00 0.00 58 1018.2
20240222025505 3 162 0.0 11.3 0.00 0.00 0.00 58 1018.0
20240222025004 2 162 1.6 11.3 0.00 0.00 0.00 59 1017.9
20240222024505 2 60 1.6 11.3 0.00 0.00 0.00 58 1017.8
20240222024003 3 53 4.8 12.9 0.00 0.00 0.00 57 1017.5
20240222023500 3 40 4.8 12.9 0.00 0.00 0.00 54 1017.3
20240222023108 3 71 4.8 17.7 0.00 0.00 0.00 51 1017.3
20240222022600 3 111 9.7 17.7 0.00 0.00 0.00 50 1017.1
20240222022059 3 170 12.9 17.7 0.00 0.00 0.00 43 1017.0
20240222021559 4 167 8.0 19.3 0.00 0.00 0.00 36 1016.8
20240222021057 5 196 9.7 16.1 0.00 0.00 0.00 33 1016.8
20240222020557 5 88 1.6 16.1 0.00 0.00 0.00 30 1016.7
20240222020057 5 156 3.2 20.9 0.00 0.00 0.00 29 1016.8
20240222015558 5 281 9.7 20.9 0.00 0.00 0.00 30 1016.6
20240222015057 6 304 4.8 17.7 0.00 0.00 0.00 29 1016.6
20240222014559 6 337 9.7 24.1 0.00 0.00 0.00 29 1016.8
20240222014056 6 265 9.7 30.6 0.00 0.00 0.00 29 1016.9
20240222013556 6 205 17.7 30.6 0.00 0.00 0.00 29 1016.6
20240222013055 6 204 8.0 30.6 0.00 0.00 0.00 29 1016.7
20240222012557 6 261 16.1 32.2 0.00 0.00 0.00 29 1016.4
20240222012054 6 257 20.9 27.4 0.00 0.00 0.00 27 1016.4
20240222011557 6 265 6.4 20.9 0.00 0.00 0.00 26 1016.4
20240222011054 6 207 6.4 37.0 0.00 0.00 0.00 25 1016.6
20240222010557 6 260 22.5 33.8 0.00 0.00 0.00 27 1016.4
20240222010055 7 221 19.3 27.4 0.00 0.00 0.00 26 1016.3
20240222005555 7 191 6.4 19.3 0.00 0.00 0.00 25 1016.4
20240222005053 6 193 8.0 19.3 0.00 0.00 0.00 26 1016.3
20240222004556 7 192 3.2 6.4 0.00 0.00 0.00 26 1016.3
20240222004053 7 98 0.0 8.0 0.00 0.00 0.00 25 1016.2
20240222003553 7 98 3.2 22.5 0.00 0.00 0.00 25 1016.1
20240222003052 7 113 6.4 22.5 0.00 0.00 0.00 25 1015.8
20240222002552 7 75 4.8 19.3 0.00 0.00 0.00 24 1016.1
20240222002056 7 21 8.0 38.6 0.00 0.00 0.00 25 1015.8
20240222001551 7 179 17.7 43.5 0.00 0.00 0.00 24 1015.5
20240222001050 7 333 12.9 49.9 0.00 0.00 0.00 25 1015.6
20240222000551 7 300 25.7 59.5 0.00 0.00 0.00 24 1015.1
20240222000053 8 265 12.9 59.5 0.00 0.00 0.00 24 1014.9
20240221235551 8 154 11.3 48.3 0.00 0.00 0.00 24 1014.9
20240221235050 7 123 14.5 30.6 0.00 0.00 0.00 24 1015.4
20240221234606 8 53 6.4 27.4 0.00 0.00 0.00 23 1015.4
20240221234050 8 86 11.3 27.4 0.00 0.00 0.00 23 1015.4
20240221233550 8 53 11.3 24.1 0.00 0.00 0.00 24 1015.2
20240221233049 8 20 6.4 22.5 0.00 0.00 0.00 23 1015.5
20240221232549 8 19 9.7 17.7 0.00 0.00 0.00 24 1015.0
20240221232048 8 335 8.0 16.1 0.00 0.00 0.00 24 1015.0
20240221231548 8 300 1.6 57.9 0.00 0.00 0.00 21 1014.9
20240221231048 8 343 27.4 66.0 0.00 0.00 0.00 22 1014.4
20240221230548 8 205 24.1 67.6 0.00 0.00 0.00 22 1014.3
20240221230048 8 244 32.2 72.4 0.00 0.00 0.00 21 1014.0
20240221225547 8 195 43.5 77.2 0.00 0.00 0.00 21 1013.6
20240221225048 8 265 37.0 77.2 0.00 0.00 0.00 21 1013.4
20240221224547 9 235 38.6 74.0 0.00 0.00 0.00 22 1012.9
20240221224046 8 240 38.6 80.5 0.00 0.00 0.00 21 1012.6
20240221223545 8 230 53.1 80.5 0.00 0.00 0.00 21 1011.9
20240221223044 8 218 35.4 70.8 0.00 0.00 0.00 22 1012.3
20240221222545 8 217 40.2 82.1 0.00 0.00 0.00 21 1012.5
20240221222044 9 235 51.5 82.1 0.00 0.00 0.00 21 1012.3
20240221221544 9 235 38.6 66.0 0.00 0.00 0.00 21 1012.4
20240221221043 9 225 35.4 62.8 0.00 0.00 0.00 20 1012.7
20240221220543 10 249 38.6 74.0 0.00 0.00 0.00 21 1012.8
20240221220043 10 223 46.7 69.2 0.00 0.00 0.00 20 1013.0
20240221215542 10 225 35.4 62.8 0.00 0.00 0.00 21 1013.1
20240221215042 9 179 40.2 64.4 0.00 0.00 0.00 21 1013.1
20240221214545 9 254 38.6 57.9 0.00 0.00 0.00 20 1013.3
20240221214041 10 258 30.6 49.9 0.00 0.00 0.00 20 1013.3
20240221213541 10 212 29.0 64.4 0.00 0.00 0.00 20 1013.2
20240221213040 10 201 38.6 64.4 0.00 0.00 0.00 18 1012.9
20240221212540 10 200 30.6 53.1 0.00 0.00 0.00 19 1013.1
20240221212039 10 257 40.2 53.1 0.00 0.00 0.00 18 1013.0
20240221211539 11 180 30.6 46.7 0.00 0.00 0.00 18 1013.2
20240221211039 11 188 27.4 61.2 0.00 0.00 0.00 18 1013.3
20240221210539 11 221 25.7 61.2 0.00 0.00 0.00 19 1013.4
20240221210050 11 200 35.4 57.9 0.00 0.00 0.00 18 1013.4
20240221205539 11 196 30.6 56.3 0.00 0.00 0.00 17 1013.4
20240221205038 11 249 37.0 56.3 0.00 0.00 0.00 17 1013.3
20240221204538 11 194 27.4 41.8 0.00 0.00 0.00 19 1013.6
20240221204041 11 198 25.7 43.5 0.00 0.00 0.00 19 1013.7
20240221203536 11 220 29.0 66.0 0.00 0.00 0.00 18 1013.6
20240221203035 11 230 40.2 66.0 0.00 0.00 0.00 17 1013.6
20240221202534 11 162 30.6 62.8 0.00 0.00 0.00 17 1013.7
20240221202035 11 230 30.6 53.1 0.00 0.00 0.00 18 1013.7
20240221201534 11 198 27.4 46.7 0.00 0.00 0.00 19 1013.9
20240221201034 11 193 27.4 61.2 0.00 0.00 0.00 18 1014.0
20240221200532 11 235 40.2 61.2 0.00 0.00 0.00 17 1013.8
20240221200033 11 186 29.0 54.7 0.00 0.00 0.00 20 1014.2
20240221195535 11 184 32.2 46.7 0.00 0.00 0.00 19 1014.2
20240221195033 10 213 27.4 67.6 0.00 0.00 0.00 20 1014.3
20240221194542 11 220 32.2 67.6 0.00 0.00 0.00 18 1014.1
20240221194034 11 223 32.2 54.7 0.00 0.00 0.00 20 1014.2
20240221193534 11 246 32.2 54.7 0.00 0.00 0.00 20 1014.6
20240221193030 11 230 25.7 51.5 0.00 0.00 0.00 19 1014.6
20240221192529 11 246 33.8 61.2 0.00 0.00 0.00 19 1014.6
20240221192030 10 202 40.2 61.2 0.00 0.00 0.00 18 1014.8
20240221191529 11 215 30.6 64.4 0.00 0.00 0.00 18 1014.7
20240221191029 11 186 35.4 64.4 0.00 0.00 0.00 18 1014.9
20240221190528 11 210 32.2 56.3 0.00 0.00 0.00 18 1015.1
20240221190031 11 245 24.1 56.3 0.00 0.00 0.00 18 1015.2
20240221185527 11 216 37.0 62.8 0.00 0.00 0.00 17 1015.0
20240221185026 10 202 32.2 62.8 0.00 0.00 0.00 18 1015.5
20240221184528 11 189 38.6 54.7 0.00 0.00 0.00 17 1015.4
20240221184026 11 251 29.0 49.9 0.00 0.00 0.00 19 1015.5
20240221183528 10 240 35.4 49.9 0.00 0.00 0.00 18 1015.7
20240221183024 11 208 32.2 53.1 0.00 0.00 0.00 18 1015.8
20240221182527 11 195 19.3 51.5 0.00 0.00 0.00 19 1016.0
20240221182022 10 205 25.7 51.5 0.00 0.00 0.00 20 1016.0
20240221181522 11 204 25.7 41.8 0.00 0.00 0.00 20 1016.0
20240221181020 10 240 22.5 41.8 0.00 0.00 0.00 20 1016.1
20240221180519 10 240 22.5 43.5 0.00 0.00 0.00 22 1016.3
20240221180029 9 183 24.1 53.1 0.00 0.00 0.00 22 1016.3
20240221175519 9 205 29.0 67.6 0.00 0.00 0.00 21 1016.4
20240221175019 9 220 43.5 67.6 0.00 0.00 0.00 20 1015.9
20240221174518 9 200 33.8 59.5 0.00 0.00 0.00 21 1016.4
20240221174018 10 235 29.0 59.5 0.00 0.00 0.00 22 1016.5
20240221173518 10 222 27.4 57.9 0.00 0.00 0.00 22 1016.5
20240221173016 10 177 33.8 57.9 0.00 0.00 0.00 21 1016.4
20240221172516 10 191 35.4 56.3 0.00 0.00 0.00 21 1016.6
20240221172015 10 245 33.8 54.7 0.00 0.00 0.00 22 1016.5
20240221171516 10 191 27.4 49.9 0.00 0.00 0.00 21 1016.9
20240221171015 10 247 30.6 51.5 0.00 0.00 0.00 22 1016.9
20240221170515 10 215 27.4 43.5 0.00 0.00 0.00 20 1017.0
20240221170013 9 201 24.1 67.6 0.00 0.00 0.00 21 1017.2
20240221165512 9 246 38.6 67.6 0.00 0.00 0.00 21 1017.1
20240221165010 9 240 25.7 57.9 0.00 0.00 0.00 20 1017.3
20240221164509 9 244 30.6 57.9 0.00 0.00 0.00 19 1017.3
20240221164008 9 211 27.4 49.9 0.00 0.00 0.00 20 1017.3
20240221163507 9 207 33.8 57.9 0.00 0.00 0.00 19 1017.4
20240221163002 9 240 35.4 57.9 0.00 0.00 0.00 20 1017.5
20240221162601 9 194 29.0 53.1 0.00 0.00 0.00 20 1017.5
20240221162104 9 213 35.4 54.7 0.00 0.00 0.00 20 1017.3
20240221161601 8 200 37.0 54.7 0.00 0.00 0.00 20 1017.3
20240221161057 8 181 27.4 40.2 0.00 0.00 0.00 21 1017.5
20240221160555 8 194 25.7 59.5 0.00 0.00 0.00 21 1017.5
20240221160052 8 259 32.2 49.9 0.00 0.00 0.00 21 1017.3
20240221155548 8 210 30.6 51.5 0.00 0.00 0.00 21 1017.5
20240221155046 8 219 33.8 51.5 0.00 0.00 0.00 21 1017.5
20240221154545 8 226 33.8 49.9 0.00 0.00 0.00 20 1017.4
20240221154044 8 218 25.7 46.7 0.00 0.00 0.00 22 1017.7
20240221153543 8 204 27.4 57.9 0.00 0.00 0.00 22 1017.4
20240221153044 8 200 32.2 57.9 0.00 0.00 0.00 21 1017.5
20240221152538 8 186 27.4 49.9 0.00 0.00 0.00 23 1017.6
20240221152037 8 240 27.4 46.7 0.00 0.00 0.00 24 1017.9
20240221151536 8 235 25.7 41.8 0.00 0.00 0.00 24 1017.8
20240221151035 8 226 22.5 41.8 0.00 0.00 0.00 25 1018.1
20240221150533 7 195 24.1 45.1 0.00 0.00 0.00 25 1018.0
20240221150033 7 179 27.4 45.1 0.00 0.00 0.00 25 1018.1
20240221145530 7 204 22.5 37.0 0.00 0.00 0.00 27 1018.3
20240221145028 7 219 19.3 30.6 0.00 0.00 0.00 28 1018.4
20240221144530 7 204 16.1 30.6 0.00 0.00 0.00 29 1018.6
20240221144025 6 211 16.1 24.1 0.00 0.00 0.00 30 1018.6
20240221143524 6 235 12.9 20.9 0.00 0.00 0.00 32 1018.7
20240221143027 6 218 6.4 17.7 0.00 0.00 0.00 35 1018.8
20240221142520 5 235 3.2 8.0 0.00 0.00 0.00 35 1018.7
20240221142020 5 254 3.2 8.0 0.00 0.00 0.00 36 1018.7
20240221141517 5 206 1.6 4.8 0.00 0.00 0.00 38 1018.7
20240221141016 5 107 0.0 4.8 0.00 0.00 0.00 37 1018.6
20240221140515 5 65 0.0 3.2 0.00 0.00 0.00 39 1018.7
20240221140015 5 65 0.0 6.4 0.00 0.00 0.00 40 1018.7
20240221135514 5 225 0.0 3.2 0.00 0.00 0.00 39 1018.7
20240221135014 5 225 0.0 6.4 0.00 0.00 0.00 38 1018.7
20240221134514 5 218 0.0 9.7 0.00 0.00 0.00 38 1018.7
20240221134017 5 240 4.8 9.7 0.00 0.00 0.00 38 1018.7
20240221133517 5 226 3.2 14.5 0.00 0.00 0.00 38 1018.7
20240221133018 5 248 6.4 14.5 0.00 0.00 0.00 37 1018.5
20240221132514 6 235 3.2 17.7 0.00 0.00 0.00 37 1018.6
20240221132012 6 217 9.7 24.1 0.00 0.00 0.00 37 1018.6
20240221131511 6 240 11.3 24.1 0.00 0.00 0.00 36 1018.8
20240221131011 6 211 11.3 29.0 0.00 0.00 0.00 37 1018.8
20240221130512 6 226 12.9 29.0 0.00 0.00 0.00 38 1018.8
20240221130011 6 254 9.7 20.9 0.00 0.00 0.00 38 1018.9
20240221125510 6 220 11.3 20.9 0.00 0.00 0.00 38 1018.8
20240221125010 6 230 11.3 20.9 0.00 0.00 0.00 38 1018.8
20240221124509 6 240 14.5 20.9 0.00 0.00 0.00 38 1018.7
20240221124009 6 244 9.7 24.1 0.00 0.00 0.00 39 1018.7
20240221123508 6 224 12.9 27.4 0.00 0.00 0.00 39 1018.9
20240221123007 6 230 17.7 27.4 0.00 0.00 0.00 40 1018.8
20240221122506 6 171 12.9 29.0 0.00 0.00 0.00 40 1018.8
20240221122005 6 202 16.1 29.0 0.00 0.00 0.00 41 1018.9
20240221121505 6 189 14.5 27.4 0.00 0.00 0.00 41 1019.1
20240221121004 6 235 14.5 30.6 0.00 0.00 0.00 41 1019.1
20240221120506 6 240 19.3 30.6 0.00 0.00 0.00 41 1019.1
20240221120004 6 198 16.1 35.4 0.00 0.00 0.00 42 1019.1
20240221115506 6 246 19.3 35.4 0.00 0.00 0.00 42 1019.0
20240221115003 6 225 17.7 29.0 0.00 0.00 0.00 43 1019.1
20240221114501 5 279 12.9 29.0 0.00 0.00 0.00 43 1019.2
20240221114100 5 235 17.7 29.0 0.00 0.00 0.00 46 1019.4
20240221113559 5 1 6.4 17.7 0.00 0.00 0.00 48 1019.4
20240221113058 5 275 4.8 17.7 0.00 0.00 0.00 50 1019.5
20240221112556 4 69 0.0 8.0 0.00 0.00 0.00 53 1019.5
20240221112057 4 142 1.6 9.7 0.00 0.00 0.00 53 1019.5
20240221111600 4 41 0.0 8.0 0.00 0.00 0.00 53 1019.5
20240221111055 4 41 3.2 8.0 0.00 0.00 0.00 53 1019.8
20240221110555 5 109 0.0 4.8 0.00 0.00 0.00 52 1019.7
20240221110056 5 109 0.0 9.7 0.00 0.00 0.00 50 1019.8
20240221105555 4 93 4.8 9.7 0.00 0.00 0.00 52 1019.8
20240221105057 4 67 0.0 9.7 0.00 0.00 0.00 53 1020.0
20240221104600 4 23 3.2 11.3 0.00 0.00 0.00 54 1019.7
20240221104056 4 349 6.4 11.3 0.00 0.00 0.00 55 1019.9
20240221103653 4 3 3.2 8.0 0.00 0.00 0.00 55 1020.0
20240221103051 3 46 1.6 6.4 0.00 0.00 0.00 55 1020.1
20240221102550 3 358 0.0 9.7 0.00 0.00 0.00 56 1020.1
20240221102050 3 4 4.8 11.3 0.00 0.00 0.00 57 1020.0
20240221101616 3 26 4.8 11.3 0.00 0.00 0.00 57 1020.2
20240221101048 3 29 0.0 9.7 0.00 0.00 0.00 58 1020.3
20240221100547 3 42 3.2 9.7 0.00 0.00 0.00 57 1020.4
20240221100045 3 12 1.6 9.7 0.00 0.00 0.00 56 1020.6
20240221095544 3 339 4.8 9.7 0.00 0.00 0.00 55 1020.6
20240221095042 4 30 1.6 8.0 0.00 0.00 0.00 54 1020.5